New Bern, NC

6:54 PM EST on February 08, 2016 (GMT -0500)
Craven County Regional

Weather History for KEWN - February, 2012

Change the Weather History Date:

Tuesday, February 21, 2012

  Actual Average Record
Temperature  
Mean Temperature 47 °F 48 °F  
Max Temperature 63 °F 59 °F 79 °F (1953)
Min Temperature 30 °F 37 °F 14 °F (2015)
Degree Days  
Heating Degree Days 18 17  
Month to date heating degree days 380 392  
Since 1 July heating degree days 1715 2032  
Cooling Degree Days 0 0  
Month to date cooling degree days 0 0  
Year to date cooling degree days 0 1  
Moisture  
Dew Point 40 °F    
Average Humidity 77    
Maximum Humidity 93    
Minimum Humidity 60    
Precipitation  
Precipitation T in 0.14 in 1.60 in (1954)
Month to date precipitation 1.70 2.70  
Year to date precipitation 4.13 6.72  
Snow  
Snow 0.00 in - - ()
Month to date snowfall 0.0  
Since 1 July snowfall 0.0  
Snow Depth 0.00 in    
Sea Level Pressure  
Sea Level Pressure 30.22 in    
Wind  
Wind Speed 4 mph (South)    
Max Wind Speed 14 mph    
Max Gust Speed 20 mph    
Visibility 10 miles    
Events      
T = Trace of Precipitation, MM = Missing Value Source: NWS Daily Summary

Daily Weather History Graph

Daily Weather History Graph

Search for Another Location

Airport or City:

Trip Planner

Search our weather history database for the weather conditions in past years. The results will help you decide how hot, cold, wet, or windy it might be!

Date:

Astronomy

Feb. 21, 2012 Rise Set
Actual Time 6:48 AM EST 5:56 PM EST
Civil Twilight 6:22 AM EST 6:21 PM EST
Nautical Twilight 5:52 AM EST 6:51 PM EST
Astronomical Twilight 5:23 AM EST 7:20 PM EST
Moon 6:16 AM EST (2/21) 5:58 PM EST (2/21)
Length of Visible Light 11h 59m
Length of Day
11h 07m
Waning Crescent, 0% of the Moon is Illuminated
Feb 21
Waning Crescent
Feb 21
New
Feb 29
First Quarter
Mar 8
Full
Mar 14
Last Quarter

Hourly Weather History & Observations

Time (EST) Temp. Windchill Dew Point Humidity Pressure Visibility Wind Dir Wind Speed Gust Speed Precip Events Conditions
12:54 AM 36.0 °F 33.3 °F 30.9 °F 82% 30.36 in 10.0 mi NE 3.5 mph - N/A   Clear
1:54 AM 33.1 °F - 28.0 °F 82% 30.38 in 10.0 mi Calm Calm - N/A   Clear
2:54 AM 32.0 °F - 28.0 °F 85% 30.35 in 10.0 mi Calm Calm - N/A   Clear
3:54 AM 32.0 °F - 28.0 °F 85% 30.34 in 10.0 mi Calm Calm - N/A   Clear
4:54 AM 32.0 °F - 28.0 °F 85% 30.33 in 10.0 mi Calm Calm - N/A   Clear
5:54 AM 34.0 °F - 30.0 °F 85% 30.33 in 10.0 mi Calm Calm - N/A   Clear
6:54 AM 30.9 °F - 28.9 °F 92% 30.34 in 10.0 mi Calm Calm - N/A   Partly Cloudy
7:54 AM 37.0 °F 34.5 °F 33.1 °F 86% 30.34 in 10.0 mi NE 3.5 mph - N/A   Clear
8:54 AM 42.1 °F 39.2 °F 35.1 °F 76% 30.34 in 10.0 mi ESE 4.6 mph - N/A   Mostly Cloudy
9:54 AM 46.0 °F - 36.0 °F 68% 30.35 in 10.0 mi Calm Calm - N/A   Overcast
10:54 AM 48.0 °F - 37.0 °F 66% 30.34 in 10.0 mi NW 3.5 mph - N/A   Overcast
11:54 AM 50.0 °F - 39.9 °F 68% 30.30 in 10.0 mi NNE 3.5 mph - 0.00 in   Overcast
12:54 PM 51.1 °F - 39.9 °F 66% 30.26 in 10.0 mi Variable 3.5 mph - N/A   Overcast
1:54 PM 57.9 °F - 45.0 °F 62% 30.21 in 10.0 mi South 3.5 mph - N/A   Clear
2:54 PM 57.0 °F - 44.1 °F 62% 30.16 in 10.0 mi East 6.9 mph - N/A   Mostly Cloudy
3:54 PM 59.0 °F - 46.0 °F 62% 30.12 in 10.0 mi SE 5.8 mph - N/A   Scattered Clouds
4:54 PM 62.1 °F - 48.9 °F 62% 30.09 in 10.0 mi South 9.2 mph - N/A   Clear
5:54 PM 57.9 °F - 51.1 °F 78% 30.08 in 10.0 mi South 6.9 mph - N/A   Clear
6:54 PM 54.0 °F - 50.0 °F 86% 30.07 in 10.0 mi SSW 4.6 mph - N/A   Partly Cloudy
7:54 PM 55.4 °F - 51.8 °F 88% 30.06 in 10.0 mi SSW 4.6 mph - N/A   Overcast
8:54 PM 55.9 °F - 52.0 °F 87% 30.06 in 10.0 mi SSW 8.1 mph - N/A   Scattered Clouds
9:54 PM 55.9 °F - 53.1 °F 90% 30.05 in 10.0 mi SSW 5.8 mph - N/A   Mostly Cloudy
10:54 PM 55.0 °F - 52.0 °F 89% 30.05 in 10.0 mi SSW 5.8 mph - N/A   Partly Cloudy
11:54 PM 55.0 °F - 51.1 °F 86% 30.04 in 10.0 mi SW 5.8 mph - N/A   Clear